Location: Augirein
(42.9320°N, 0.9181°E)
Time: 19:11:17
(UTC+00:00)

CZ-2D R/B - Pass Details

Date: 20 June 2021
Orbit: 551 x 639 km, 97.9° (Epoch: 31 July)

Event Time Altitude Azimuth Distance (km) Brightness Sun altitude
Rises 03:33:02 0° 11° (N) 2,856 7.9 -7.2°
Reaches altitude 10° 03:35:15 10° 9° (N) 1,935 6.9 -6.9°
Maximum altitude 03:39:25 75° 285° (WNW) 607 3.5 -6.4°
Drops below altitude 10° 03:43:28 10° 200° (SSW) 1,868 5.5 -5.8°
Enters shadow 03:44:55 - 199° (SSW) 2,479 6.1 -5.6°
